Regional Weather Roundup
Issued by NWS

Home | Current Version | Previous Version | Graphics & Text | Print | Product List | Glossary On
Versions: 1 2 3 4 5 6 7 8 9 10 11 12 13 14 15 16 17 18 19 20 21 22 23 24 25 26 27 28 29 30 31 32 33 34 35 36 37 38 39 40 41 42 43 44 45 46 47 48 49 50
000
ASUS43 KLMK 170502
RWRKY
KENTUCKY REGIONAL WEATHER ROUNDUP
NATIONAL WEATHER SERVICE LOUISVILLE KY
100 AM EDT THU AUG 17 2017

NOTE "FAIR" INDICATES FEW OR NO CLOUDS BELOW 12,000 FEET
WITH NO SIGNIFICANT WEATHER AND/OR OBSTRUCTIONS TO VISIBILITY.

KYZ001>023-026-027-061>063-070>075-170600-
WESTERN AND SOUTH CENTRAL KENTUCKY

CITY           SKY/WX    TMP DP  RH WIND       PRES   REMARKS
PADUCAH        CLEAR     78  74  87 S5        29.93F
HENDERSON      CLOUDY    78  75  90 S7        29.93F
OWENSBORO      CLOUDY    78  74  87 SE8       29.94F
HOPKINSVILLE   CLEAR     78  76  93 S5        29.98F
BOWLING GREEN  CLEAR     78  75  90 S3        30.01R
GLASGOW        PTCLDY    77  76  96 CALM      30.01S
$$

KYZ024-025-028>034-038-045-046-053-170600-
NORTH CENTRAL KENTUCKY

CITY           SKY/WX    TMP DP  RH WIND       PRES   REMARKS
LOUISVILLE/SDF MOCLDY    80  72  76 SE8       29.96F
LOUISVILLE/LOU PTCLDY    78  73  84 S5        29.98F
FORT KNOX      CLEAR     73  72  95 S5        29.97F
$$

KYZ035>037-039>044-047>052-055>060-089>105-170600-
NORTHEAST KENTUCKY

CITY           SKY/WX    TMP DP  RH WIND       PRES   REMARKS
LEXINGTON      CLEAR     75  70  84 S6        30.02F
COVINGTON      PTCLDY    76  73  91 S8        29.98F
FRANKFORT      CLEAR     76  69  79 CALM      29.99F
$$

KYZ054-064>069-076>088-106>120-170600-
SOUTHEAST KENTUCKY

CITY           SKY/WX    TMP DP  RH WIND       PRES   REMARKS
JACKSON        CLOUDY    73  71  93 CALM      30.06F
LONDON         CLOUDY    75  73  93 CALM      30.06S
SOMERSET       NOT AVBL
MIDDLESBORO    CLOUDY    73  73 100 CALM      30.08F
MONTICELLO     CLOUDY    73  73 100 W10       30.06S
$$





USA.gov is the U.S. government's official web portal to all federal, state and local government web resources and services.